| time (UTC) | temp C | wind direction | speed KPH | gust KPH | rain 1hr cm | rain 24hr cm | rain mn cm | humidity % | barometer mb |
| 20260504110439 | 20 | 242 | 8.0 | 17.7 | 0.00 | 0.00 | 0.00 | 71 | 1018.6 |
| 20260504100440 | 21 | 298 | 3.2 | 9.7 | 0.00 | 0.00 | 0.00 | 57 | 1018.8 |
| 20260504081431 | 20 | 119 | 1.6 | 4.8 | 0.00 | 0.00 | 0.00 | 64 | 1019.1 |
| 20260504080931 | 20 | 225 | 1.6 | 6.4 | 0.00 | 0.00 | 0.00 | 65 | 1019.1 |
| 20260504080429 | 20 | 122 | 1.6 | 6.4 | 0.00 | 0.00 | 0.00 | 66 | 1019.0 |
| 20260504070204 | 16 | 29 | 0.0 | 1.6 | 0.00 | 0.00 | 0.00 | 95 | 1018.7 |
| 20260504050406 | 11 | 38 | 0.0 | 1.6 | 0.00 | 0.00 | 0.00 | 96 | 1018.1 |
| 20260504045907 | 10 | 38 | 1.6 | 3.2 | 0.00 | 0.00 | 0.00 | 96 | 1018.1 |
| 20260504045403 | 9 | 38 | 3.2 | 3.2 | 0.00 | 0.00 | 0.00 | 95 | 1018.1 |
| 20260504044903 | 9 | 39 | 3.2 | 3.2 | 0.00 | 0.00 | 0.00 | 95 | 1018.0 |
| 20260504044404 | 9 | 63 | 1.6 | 3.2 | 0.00 | 0.00 | 0.00 | 95 | 1018.0 |
| 20260504044141 | 8 | 69 | 0.0 | 3.2 | 0.00 | 0.00 | 0.00 | 95 | 1018.0 |
| 20260504043640 | 8 | 135 | 0.0 | 1.6 | 0.00 | 0.00 | 0.00 | 95 | 1018.0 |
| 20260504042902 | 8 | 135 | 1.6 | 1.6 | 0.00 | 0.00 | 0.00 | 95 | 1017.9 |
| 20260504042404 | 8 | 138 | 0.0 | 1.6 | 0.00 | 0.00 | 0.00 | 94 | 1018.0 |
| 20260504041902 | 8 | 138 | 0.0 | 1.6 | 0.00 | 0.00 | 0.00 | 95 | 1017.9 |
| 20260504041403 | 8 | 139 | 0.0 | 1.6 | 0.00 | 0.00 | 0.00 | 95 | 1017.9 |
| 20260504040904 | 8 | 139 | 0.0 | 1.6 | 0.00 | 0.00 | 0.00 | 94 | 1017.9 |
| 20260504040402 | 8 | 139 | 0.0 | 0.0 | 0.00 | 0.00 | 0.00 | 93 | 1017.8 |
| 20260504035902 | 8 | 139 | 0.0 | 0.0 | 0.00 | 0.00 | 0.00 | 93 | 1017.8 |
| 20260504035402 | 8 | 139 | 0.0 | 0.0 | 0.00 | 0.00 | 0.00 | 93 | 1017.7 |
| 20260504034902 | 8 | 139 | 0.0 | 0.0 | 0.00 | 0.00 | 0.00 | 93 | 1017.8 |
| 20260504034640 | 9 | 139 | 0.0 | 0.0 | 0.00 | 0.00 | 0.00 | 94 | 1017.7 |
| 20260504033902 | 9 | 139 | 0.0 | 0.0 | 0.00 | 0.00 | 0.00 | 95 | 1017.7 |
| 20260504033641 | 8 | 139 | 0.0 | 0.0 | 0.00 | 0.00 | 0.00 | 95 | 1017.8 |
| 20260504032905 | 8 | 139 | 0.0 | 0.0 | 0.00 | 0.00 | 0.00 | 94 | 1017.7 |
| 20260504032407 | 8 | 139 | 0.0 | 4.8 | 0.00 | 0.00 | 0.00 | 94 | 1017.7 |
| 20260504031902 | 8 | 139 | 0.0 | 4.8 | 0.00 | 0.00 | 0.00 | 93 | 1017.7 |
| 20260504031402 | 8 | 163 | 0.0 | 0.0 | 0.00 | 0.00 | 0.00 | 93 | 1017.7 |
| 20260504030903 | 8 | 163 | 0.0 | 0.0 | 0.00 | 0.00 | 0.00 | 93 | 1017.6 |
| 20260504030402 | 8 | 163 | 0.0 | 0.0 | 0.00 | 0.00 | 0.00 | 94 | 1017.7 |
| 20260504025902 | 8 | 163 | 0.0 | 0.0 | 0.00 | 0.00 | 0.00 | 93 | 1017.7 |
| 20260504025403 | 8 | 163 | 0.0 | 0.0 | 0.00 | 0.00 | 0.00 | 93 | 1017.7 |
| 20260504024902 | 8 | 163 | 0.0 | 0.0 | 0.00 | 0.00 | 0.00 | 93 | 1017.7 |
| 20260504024401 | 8 | 163 | 0.0 | 0.0 | 0.00 | 0.00 | 0.00 | 93 | 1017.7 |
| 20260504023859 | 8 | 163 | 0.0 | 0.0 | 0.00 | 0.00 | 0.00 | 93 | 1017.7 |
| 20260504023358 | 9 | 163 | 0.0 | 0.0 | 0.00 | 0.00 | 0.00 | 94 | 1017.8 |
| 20260504022858 | 8 | 163 | 0.0 | 0.0 | 0.00 | 0.00 | 0.00 | 93 | 1017.8 |
| 20260504022356 | 8 | 163 | 0.0 | 0.0 | 0.00 | 0.00 | 0.00 | 93 | 1017.8 |
| 20260504021856 | 8 | 163 | 0.0 | 0.0 | 0.00 | 0.00 | 0.00 | 93 | 1017.8 |
| 20260504021356 | 9 | 163 | 0.0 | 0.0 | 0.00 | 0.00 | 0.00 | 93 | 1017.8 |
| 20260504020856 | 9 | 163 | 0.0 | 0.0 | 0.00 | 0.00 | 0.00 | 93 | 1017.7 |
| 20260504020356 | 9 | 162 | 0.0 | 0.0 | 0.00 | 0.00 | 0.00 | 93 | 1017.7 |
| 20260504020137 | 9 | 162 | 0.0 | 0.0 | 0.00 | 0.00 | 0.00 | 93 | 1017.7 |
| 20260504015858 | 8 | 162 | 0.0 | 0.0 | 0.00 | 0.00 | 0.00 | 93 | 1017.8 |
| 20260504014856 | 9 | 162 | 0.0 | 0.0 | 0.00 | 0.00 | 0.00 | 92 | 1017.7 |
| 20260504014357 | 9 | 162 | 0.0 | 0.0 | 0.00 | 0.00 | 0.00 | 93 | 1017.8 |
| 20260504013858 | 9 | 162 | 0.0 | 0.0 | 0.00 | 0.00 | 0.00 | 93 | 1017.6 |
| 20260504013356 | 9 | 162 | 0.0 | 0.0 | 0.00 | 0.00 | 0.00 | 93 | 1017.7 |
| 20260504012856 | 9 | 162 | 0.0 | 0.0 | 0.00 | 0.00 | 0.00 | 93 | 1017.7 |
| 20260504012356 | 9 | 162 | 0.0 | 0.0 | 0.00 | 0.00 | 0.00 | 93 | 1017.7 |
| 20260504011908 | 8 | 162 | 0.0 | 0.0 | 0.00 | 0.00 | 0.00 | 91 | 1017.7 |
| 20260504011858 | 9 | 162 | 0.0 | 0.0 | 0.00 | 0.00 | 0.00 | 93 | 1017.7 |
| 20260504011128 | 9 | 162 | 0.0 | 0.0 | 0.00 | 0.00 | 0.00 | 92 | 1017.8 |
| 20260504010356 | 10 | 164 | 0.0 | 1.6 | 0.00 | 0.00 | 0.00 | 93 | 1017.8 |
| 20260504005855 | 10 | 164 | 0.0 | 1.6 | 0.00 | 0.00 | 0.00 | 93 | 1017.8 |
| 20260504005354 | 10 | 151 | 0.0 | 1.6 | 0.00 | 0.00 | 0.00 | 93 | 1017.7 |
| 20260504004852 | 10 | 84 | 0.0 | 0.0 | 0.00 | 0.00 | 0.00 | 93 | 1017.8 |
| 20260504004350 | 9 | 84 | 0.0 | 0.0 | 0.00 | 0.00 | 0.00 | 92 | 1017.7 |
| 20260504004124 | 9 | 84 | 0.0 | 0.0 | 0.00 | 0.00 | 0.00 | 92 | 1017.6 |
| 20260504003622 | 9 | 84 | 0.0 | 1.6 | 0.00 | 0.00 | 0.00 | 92 | 1017.6 |
| 20260504002839 | 10 | 84 | 0.0 | 1.6 | 0.00 | 0.00 | 0.00 | 92 | 1017.6 |
| 20260504002333 | 10 | 84 | 0.0 | 1.6 | 0.00 | 0.00 | 0.00 | 92 | 1017.6 |
| 20260504001836 | 10 | 84 | 0.0 | 0.0 | 0.00 | 0.00 | 0.00 | 91 | 1017.6 |
| 20260504001332 | 10 | 84 | 0.0 | 1.6 | 0.00 | 0.00 | 0.00 | 91 | 1017.6 |
| 20260504000832 | 10 | 84 | 0.0 | 1.6 | 0.00 | 0.00 | 0.00 | 92 | 1017.7 |
| 20260504000332 | 10 | 39 | 0.0 | 1.6 | 0.00 | 0.00 | 0.00 | 92 | 1017.8 |
| 20260504000109 | 10 | 39 | 0.0 | 3.2 | 0.00 | 0.00 | 0.00 | 91 | 1017.9 |
| 20260503235332 | 10 | 39 | 0.0 | 3.2 | 0.00 | 0.00 | 0.00 | 90 | 1017.9 |
| 20260503235105 | 10 | 262 | 0.0 | 0.0 | 0.00 | 0.00 | 0.00 | 91 | 1017.9 |
| 20260503234330 | 10 | 259 | 0.0 | 0.0 | 0.00 | 0.00 | 0.00 | 91 | 1017.9 |
| 20260503233830 | 10 | 259 | 0.0 | 0.0 | 0.00 | 0.00 | 0.00 | 91 | 1018.0 |
| 20260503233327 | 10 | 259 | 0.0 | 0.0 | 0.00 | 0.00 | 0.00 | 90 | 1018.1 |
| 20260503232828 | 10 | 259 | 0.0 | 0.0 | 0.00 | 0.00 | 0.00 | 91 | 1018.0 |
| 20260503232328 | 10 | 259 | 0.0 | 0.0 | 0.00 | 0.00 | 0.00 | 91 | 1018.1 |
| 20260503232100 | 11 | 259 | 0.0 | 0.0 | 0.00 | 0.00 | 0.00 | 91 | 1018.1 |
| 20260503231324 | 10 | 259 | 0.0 | 0.0 | 0.00 | 0.00 | 0.00 | 92 | 1018.2 |
| 20260503231106 | 10 | 259 | 0.0 | 0.0 | 0.00 | 0.00 | 0.00 | 90 | 1018.2 |
| 20260503230824 | 10 | 259 | 0.0 | 0.0 | 0.00 | 0.00 | 0.00 | 91 | 1018.1 |
| 20260503225819 | 10 | 259 | 0.0 | 0.0 | 0.00 | 0.00 | 0.00 | 90 | 1018.3 |
| 20260503225550 | 10 | 259 | 0.0 | 0.0 | 0.00 | 0.00 | 0.00 | 90 | 1018.3 |
| 20260503224817 | 11 | 259 | 0.0 | 0.0 | 0.00 | 0.00 | 0.00 | 89 | 1018.3 |
| 20260503224314 | 11 | 259 | 0.0 | 0.0 | 0.00 | 0.00 | 0.00 | 90 | 1018.4 |
| 20260503224047 | 11 | 260 | 0.0 | 0.0 | 0.00 | 0.00 | 0.00 | 90 | 1018.4 |
| 20260503223551 | 11 | 260 | 0.0 | 0.0 | 0.00 | 0.00 | 0.00 | 90 | 1018.4 |
| 20260503222813 | 11 | 259 | 0.0 | 0.0 | 0.00 | 0.00 | 0.00 | 90 | 1018.4 |
| 20260503222310 | 11 | 259 | 0.0 | 0.0 | 0.00 | 0.00 | 0.00 | 91 | 1018.4 |
| 20260503222040 | 11 | 259 | 0.0 | 0.0 | 0.00 | 0.00 | 0.00 | 89 | 1018.4 |
| 20260503221305 | 11 | 259 | 0.0 | 0.0 | 0.00 | 0.00 | 0.00 | 89 | 1018.4 |
| 20260503220806 | 12 | 259 | 0.0 | 0.0 | 0.00 | 0.00 | 0.00 | 89 | 1018.4 |
| 20260503220306 | 12 | 259 | 0.0 | 0.0 | 0.00 | 0.00 | 0.00 | 90 | 1018.4 |
| 20260503215803 | 11 | 259 | 0.0 | 0.0 | 0.00 | 0.00 | 0.00 | 89 | 1018.4 |
| 20260503215321 | 12 | 259 | 0.0 | 0.0 | 0.00 | 0.00 | 0.00 | 88 | 1018.4 |
| 20260503215311 | 12 | 259 | 0.0 | 0.0 | 0.00 | 0.00 | 0.00 | 88 | 1018.3 |
| 20260503214302 | 12 | 259 | 0.0 | 0.0 | 0.00 | 0.00 | 0.00 | 88 | 1018.3 |
| 20260503213802 | 12 | 260 | 0.0 | 0.0 | 0.00 | 0.00 | 0.00 | 89 | 1018.3 |
| 20260503213302 | 12 | 259 | 0.0 | 0.0 | 0.00 | 0.00 | 0.00 | 89 | 1018.4 |
| 20260503212802 | 12 | 259 | 0.0 | 0.0 | 0.00 | 0.00 | 0.00 | 88 | 1018.3 |
| 20260503212315 | 12 | 259 | 0.0 | 0.0 | 0.00 | 0.00 | 0.00 | 88 | 1018.2 |
| 20260503212305 | 12 | 259 | 0.0 | 0.0 | 0.00 | 0.00 | 0.00 | 88 | 1018.3 |
| 20260503211259 | 12 | 260 | 0.0 | 0.0 | 0.00 | 0.00 | 0.00 | 88 | 1018.2 |
| 20260503210757 | 12 | 259 | 0.0 | 0.0 | 0.00 | 0.00 | 0.00 | 87 | 1018.3 |
| 20260503210257 | 12 | 260 | 0.0 | 0.0 | 0.00 | 0.00 | 0.00 | 86 | 1018.4 |
| 20260503205757 | 12 | 259 | 0.0 | 0.0 | 0.00 | 0.00 | 0.00 | 86 | 1018.3 |
| 20260503205256 | 13 | 259 | 0.0 | 0.0 | 0.00 | 0.00 | 0.00 | 86 | 1018.3 |
| 20260503205039 | 13 | 259 | 0.0 | 1.6 | 0.00 | 0.00 | 0.00 | 87 | 1018.3 |
| 20260503204252 | 13 | 259 | 0.0 | 1.6 | 0.00 | 0.00 | 0.00 | 87 | 1018.2 |
| 20260503203746 | 13 | 259 | 0.0 | 1.6 | 0.00 | 0.00 | 0.00 | 87 | 1018.2 |
| 20260503203245 | 13 | 263 | 0.0 | 1.6 | 0.00 | 0.00 | 0.00 | 87 | 1018.1 |
| 20260503202743 | 13 | 300 | 0.0 | 0.0 | 0.00 | 0.00 | 0.00 | 87 | 1018.1 |
| 20260503202240 | 13 | 300 | 0.0 | 0.0 | 0.00 | 0.00 | 0.00 | 86 | 1018.2 |
| 20260503201738 | 13 | 300 | 0.0 | 0.0 | 0.00 | 0.00 | 0.00 | 86 | 1018.1 |
| 20260503201236 | 13 | 300 | 0.0 | 0.0 | 0.00 | 0.00 | 0.00 | 85 | 1018.1 |
| 20260503200734 | 13 | 300 | 0.0 | 0.0 | 0.00 | 0.00 | 0.00 | 85 | 1018.2 |
| 20260503200231 | 13 | 300 | 0.0 | 1.6 | 0.00 | 0.00 | 0.00 | 85 | 1018.1 |
| 20260503200000 | 13 | 300 | 0.0 | 1.6 | 0.00 | 0.00 | 0.00 | 85 | 1018.2 |
| 20260503195231 | 13 | 300 | 0.0 | 1.6 | 0.00 | 0.00 | 0.00 | 85 | 1018.1 |
| 20260503194732 | 13 | 300 | 0.0 | 1.6 | 0.00 | 0.00 | 0.00 | 86 | 1018.1 |
| 20260503194230 | 13 | 304 | 0.0 | 0.0 | 0.00 | 0.00 | 0.00 | 85 | 1018.1 |
| 20260503193730 | 13 | 304 | 0.0 | 0.0 | 0.00 | 0.00 | 0.00 | 84 | 1017.9 |
| 20260503193511 | 13 | 303 | 0.0 | 0.0 | 0.00 | 0.00 | 0.00 | 84 | 1017.9 |
| 20260503192730 | 14 | 304 | 0.0 | 0.0 | 0.00 | 0.00 | 0.00 | 83 | 1018.0 |
| 20260503192508 | 14 | 304 | 0.0 | 0.0 | 0.00 | 0.00 | 0.00 | 83 | 1017.9 |
| 20260503191730 | 14 | 304 | 0.0 | 0.0 | 0.00 | 0.00 | 0.00 | 83 | 1017.8 |
| 20260503191231 | 15 | 304 | 0.0 | 0.0 | 0.00 | 0.00 | 0.00 | 83 | 1017.9 |
| 20260503190730 | 15 | 304 | 0.0 | 0.0 | 0.00 | 0.00 | 0.00 | 83 | 1017.7 |
| 20260503190231 | 15 | 304 | 0.0 | 3.2 | 0.00 | 0.00 | 0.00 | 82 | 1017.8 |
| 20260503185730 | 15 | 304 | 0.0 | 3.2 | 0.00 | 0.00 | 0.00 | 83 | 1017.7 |
| 20260503185230 | 15 | 311 | 1.6 | 6.4 | 0.00 | 0.00 | 0.00 | 83 | 1017.7 |
| 20260503184731 | 15 | 302 | 1.6 | 6.4 | 0.00 | 0.00 | 0.00 | 83 | 1017.8 |
| 20260503184518 | 15 | 302 | 1.6 | 4.8 | 0.00 | 0.00 | 0.00 | 82 | 1017.8 |
| 20260503184232 | 15 | 327 | 1.6 | 4.8 | 0.00 | 0.00 | 0.00 | 82 | 1017.7 |
| 20260503183226 | 15 | 277 | 0.0 | 1.6 | 0.00 | 0.00 | 0.00 | 81 | 1017.5 |
| 20260503182726 | 15 | 273 | 1.6 | 8.0 | 0.00 | 0.00 | 0.00 | 80 | 1017.5 |
| 20260503182224 | 16 | 268 | 1.6 | 8.0 | 0.00 | 0.00 | 0.00 | 79 | 1017.4 |
| 20260503181724 | 16 | 270 | 3.2 | 11.3 | 0.00 | 0.00 | 0.00 | 79 | 1017.4 |
| 20260503181226 | 16 | 262 | 4.8 | 11.3 | 0.00 | 0.00 | 0.00 | 79 | 1017.5 |
| 20260503180722 | 16 | 255 | 4.8 | 14.5 | 0.00 | 0.00 | 0.00 | 78 | 1017.5 |
| 20260503180222 | 16 | 259 | 4.8 | 14.5 | 0.00 | 0.00 | 0.00 | 78 | 1017.4 |
| 20260503175723 | 16 | 281 | 4.8 | 9.7 | 0.00 | 0.00 | 0.00 | 77 | 1017.4 |
| 20260503175458 | 17 | 266 | 4.8 | 11.3 | 0.00 | 0.00 | 0.00 | 77 | 1017.3 |
| 20260503175006 | 17 | 262 | 6.4 | 16.1 | 0.00 | 0.00 | 0.00 | 76 | 1017.3 |
| 20260503174222 | 17 | 267 | 8.0 | 16.1 | 0.00 | 0.00 | 0.00 | 76 | 1017.2 |
| 20260503173723 | 17 | 266 | 8.0 | 16.1 | 0.00 | 0.00 | 0.00 | 75 | 1017.0 |
| 20260503173220 | 17 | 276 | 8.0 | 16.1 | 0.00 | 0.00 | 0.00 | 75 | 1017.0 |
| 20260503172720 | 18 | 261 | 8.0 | 16.1 | 0.00 | 0.00 | 0.00 | 74 | 1016.8 |
| 20260503172216 | 18 | 245 | 6.4 | 19.3 | 0.00 | 0.00 | 0.00 | 73 | 1016.8 |
| 20260503171716 | 18 | 254 | 8.0 | 19.3 | 0.00 | 0.00 | 0.00 | 74 | 1016.6 |
| 20260503171216 | 18 | 281 | 6.4 | 16.1 | 0.00 | 0.00 | 0.00 | 74 | 1016.6 |
| 20260503170715 | 18 | 224 | 4.8 | 11.3 | 0.00 | 0.00 | 0.00 | 74 | 1016.5 |
| 20260503170214 | 18 | 249 | 6.4 | 14.5 | 0.00 | 0.00 | 0.00 | 74 | 1016.4 |
| 20260503160207 | 20 | 224 | 6.4 | 12.9 | 0.00 | 0.00 | 0.00 | 69 | 1016.6 |
| 20260503150704 | 19 | 245 | 9.7 | 20.9 | 0.00 | 0.00 | 0.00 | 71 | 1017.4 |
| 20260503150202 | 19 | 247 | 11.3 | 24.1 | 0.00 | 0.00 | 0.00 | 71 | 1017.4 |
| 20260503131158 | 20 | 266 | 12.9 | 25.7 | 0.00 | 0.00 | 0.00 | 67 | 1018.5 |
| 20260503130659 | 20 | 257 | 12.9 | 24.1 | 0.00 | 0.00 | 0.00 | 67 | 1018.4 |
| 20260503130431 | 20 | 274 | 14.5 | 25.7 | 0.00 | 0.00 | 0.00 | 67 | 1018.5 |